Tracking 18793 objects as of 25-September-2017
HD Live streaming from Space Station
objects crossing your sky now

COSMOS 1285

Track COSMOS 1285 now!
COSMOS 1285 is classified as:


NORAD ID: 12627
Int'l Code: 1981-071A
Perigee: 5,688.6 km
Apogee: 35,134.8 km
Inclination: 68.8 °
Period: 727.0 minutes
Semi major axis: 26782 km
RCS: 7.7618 m2 (large)
Launch date: August 4, 1981
Source: Commonwealth of Independent States (former USSR) (CIS)
Launch site: PLESETSK MISSILE AND SPACE COMPLEX (PKMTR)
aabbcc
Your satellite tracking list
Your tracking list is empty





NASA's NSSDC Master Catalog

Two Line Element Set (TLE):
1 12627U 81071A   17267.31103642 -.00000328 +00000-0 +00000-0 0  9992
2 12627 068.7952 282.9007 5497240 073.3098 358.8717 01.98071004183366
Source of the keplerian elements: AFSPC